Location: Alphen
(52.1351°N, 4.6549°E)
Time: 01:41:45
(UTC+00:00)

COSMO-SKYMED 1 - Pass Details

Date: 27 January 2021
Orbit: 621 x 623 km, 97.9° (Epoch: 27 February)

Event Time Altitude Azimuth Distance (km) Brightness Sun altitude
Rises 05:06:23 0° 178° (S) 2,894 6.1 -21.7°
Reaches altitude 10° 05:08:37 10° 183° (S) 1,992 5.2 -21.4°
Enters shadow 05:12:25 49° 239° (WSW) 807 2.8 -20.8°
